Location: Bremen
(53.0796°N, 8.8241°E)
Time: 08:09:05
(UTC+01:00)

ISS - Pass Details

Date: 05 January 2018
Orbit: 401 x 406 km, 51.6° (Epoch: 17 January)

Event Time Altitude Azimuth Distance (km) Brightness Sun altitude
Exits shadow 07:38:33 - 271° (W) 1,529 -1.5 -8.3°
Reaches altitude 10° 07:38:42 10° 271° (W) 1,468 -1.6 -8.3°
Maximum altitude 07:41:57 60° 191° (S) 472 -3.4 -7.8°
Drops below altitude 10° 07:45:12 10° 111° (ESE) 1,468 0.7 -7.4°
Sets 07:47:18 0° 107° (ESE) 2,328 2.1 -7.1°
